EHI
3 3 3 2 2 5 7 7 4 3 3 2 1 0 0 0 0 0 1 4 9 10 9 6 7 10 12 10 8 6 6 7 7 5 2 1 1 2 2 3 3 3 3
1 2 2 2 2 4 6 6 4 3 3 2 1 0 0 0 0 0 0 2 6 9 10 9 8 11 13 11 9 8 8 8 8 6 4 1 0 1 1 2 2 3 3
1 1 1 1 1 2 3 3 3 3 2 3 2 1 0 0 0 0 0 0 2 4 8 10 11 12 13 12 10 10 9 8 7 5 4 2 1 1 0 1 2 2 2
2 1 1 1 1 1 1 1 1 2 3 3 2 1 0 0 0 0 0 0 0 1 4 8 10 11 11 11 11 10 8 7 5 5 4 4 3 2 1 1 1 2 2
3 3 2 2 2 2 1 0 0 1 2 2 1 1 0 0 0 0 0 0 0 0 1 4 6 8 9 10 11 10 9 8 7 6 6 5 3 2 2 2 2 2 2
5 4 3 3 3 3 2 1 0 0 1 1 0 0 0 0 0 0 0 0 0 0 0 1 3 5 7 9 11 11 10 10 9 8 7 4 2 1 1 1 1 1 1
6 5 4 4 4 4 3 2 1 0 0 0 0 0 0 0 0 0 0 0 0 0 0 0 1 2 4 6 8 9 9 11 11 9 6 2 1 0 0 0 0 0 0
6 6 5 5 5 4 4 3 1 1 1 0 0 0 0 0 0 0 0 0 0 0 0 0 0 0 1 2 3 5 6 7 9 9 7 3 1 1 0 0 0 0 0
6 6 6 5 4 4 3 3 3 2 2 1 0 0 0 0 0 0 0 0 0 0 0 0 0 0 0 0 0 2 3 4 6 8 8 4 2 1 0 0 0 0 0
6 6 5 4 3 3 3 3 3 3 3 2 1 0 0 0 0 0 0 0 0 0 0 0 0 0 0 0 0 1 2 3 4 6 6 4 2 1 0 0 0 0 0
4 4 4 3 3 3 3 2 3 3 3 3 2 1 0 0 0 0 0 0 0 0 0 0 0 0 0 0 0 0 1 1 2 3 4 3 3 2 1 0 0 0 0
2 3 3 3 3 3 2 1 2 3 3 3 2 1 0 0 0 0 0 0 0 0 0 0 0 0 0 0 0 0 0 0 1 1 2 3 3 3 2 1 1 0 0
3 3 3 3 3 3 3 2 2 3 3 3 2 1 0 0 0 0 0 0 0 0 0 0 0 0 0 0 0 0 0 0 0 0 1 1 2 3 3 3 2 1 0
3 3 3 3 3 3 3 3 3 3 2 1 1 0 0 0 0 0 0 0 0 0 0 0 0 0 0 0 0 0 0 0 0 0 0 0 1 2 2 2 2 1 0
3 3 3 3 3 3 3 3 3 2 1 0 0 0 0 1 0 0 0 0 0 0 0 0 0 0 0 0 0 0 0 0 0 0 0 0 0 1 1 1 1 0 0
2 2 2 2 2 2 2 2 1 1 0 0 0 0 0 0 0 0 0 0 0 0 0 0 0 0 0 0 0 0 0 0 0 0 0 0 0 0 0 0 0 0 0
1 1 1 1 1 1 1 1 0 0 0 0 0 0 0 0 0 0 0 0 0 0 0 0 0 0 0 0 0 0 0 0 0 0 0 0 0 0 0 0 0 0 0
0 0 0 0 0 0 0 0 0 0 0 0 0 0 0 0 0 0 0 0 0 0 0 0 0 0 0 0 0 0 0 0 0 0 0 0 0 0 0 0 0 0 0
0 0 0 0 0 0 0 0 0 0 0 0 0 0 0 0 0 0 0 0 0 0 0 0 0 0 0 0 0 0 0 0 0 0 0 0 0 0 0 0 0 0 0
0 0 0 0 0 0 0 0 0 0 0 0 0 0 0 0 0 0 0 0 0 0 0 0 0 0 0 0 0 0 0 0 0 0 0 0 0 0 0 0 0 0 0
0 0 0 0 0 0 0 0 0 0 0 0 0 0 0 0 0 0 0 0 0 0 0 0 0 0 0 0 0 0 0 0 0 0 0 0 0 0 0 0 0 0 0
0 0 0 0 0 0 0 0 0 0 0 0 0 0 0 0 0 0 0 0 0 0 0 0 0 0 0 0 0 0 0 0 0 0 0 0 0 0 0 0 0 0 0
0 0 0 0 0 0 0 0 0 0 0 0 0 0 0 0 0 0 0 0 0 0 0 0 0 0 0 0 0 0 0 0 0 0 0 0 0 0 0 0 0 0 0
0 0 0 0 0 0 0 0 0 0 0 0 0 0 0 0 0 0 0 0 0 0 0 0 0 0 0 0 0 0 0 0 0 0 0 0 0 0 0 0 0 0 0
0 0 0 0 0 0 0 0 0 0 0 0 0 0 0 0 0 0 0 0 0 0 0 0 0 0 0 0 0 0 0 0 0 0 0 0 0 0 0 0 0 0 0
0 0 0 0 0 0 0 0 0 0 0 0 0 0 0 0 0 0 0 0 0 0 0 0 0 0 0 0 0 0 0 0 0 0 0 0 0 0 0 0 0 0 0
Wind_Speed
2 2 2 2 2 2 2 2 2 2 2 3 3 4 4 4 4 4 3 9 10 11 12 13 12 12 11 11 11 10 10 10 9 9 9 9 8 8 9 8 8 8 9
2 2 2 2 2 2 2 3 3 3 2 2 3 3 4 4 4 4 3 6 9 10 11 12 12 12 12 12 11 11 11 10 10 8 8 8 8 8 8 8 8 8 8
2 2 2 2 2 2 3 2 2 2 2 2 2 3 3 4 4 4 4 4 5 8 10 10 11 11 11 12 12 11 11 11 10 10 9 8 8 8 8 8 8 8 7
3 2 2 2 2 2 2 2 2 1 1 1 1 2 2 2 4 5 5 4 4 4 7 9 10 10 11 12 12 12 11 11 11 10 10 9 9 8 7 7 7 7 7
2 2 2 2 2 2 2 2 2 2 2 2 2 2 2 2 3 4 5 5 5 4 4 7 9 10 11 12 12 12 11 11 11 11 10 10 9 8 8 7 6 6 7
1 1 1 1 1 1 1 1 2 2 2 2 2 2 2 2 2 3 4 4 4 5 5 5 4 6 11 12 12 12 12 12 11 11 11 11 10 9 8 7 7 6 6
2 2 1 1 1 2 2 3 2 2 2 1 1 1 2 2 3 3 3 3 4 5 5 5 4 4 5 11 12 12 12 12 11 11 11 10 10 9 9 8 8 7 7
2 1 2 2 2 1 1 2 2 2 2 2 2 1 1 2 3 3 3 3 4 4 5 6 5 5 5 4 7 12 11 11 11 11 10 9 9 9 9 9 8 7 7
2 1 2 2 2 2 2 3 3 3 3 2 2 3 3 3 2 3 3 4 4 3 4 4 5 5 6 5 5 9 11 11 11 12 11 10 10 9 9 8 8 8 8
2 2 2 2 2 2 2 3 3 3 3 2 2 2 3 3 3 2 2 3 4 4 5 5 5 5 5 4 5 8 10 11 11 11 11 10 10 10 9 8 8 8 8
2 2 2 1 2 2 2 2 2 3 3 3 3 2 2 1 2 2 2 2 2 2 3 4 4 4 5 5 4 7 10 11 11 11 11 11 11 11 10 9 8 8 8
2 2 2 2 2 2 2 3 3 3 4 4 3 3 3 3 3 3 3 2 2 3 2 3 3 4 4 5 7 9 10 11 12 12 12 11 11 12 11 10 10 9 8
2 3 3 2 2 3 3 2 2 3 4 4 4 3 3 3 3 3 3 2 2 2 2 2 3 3 4 4 5 9 9 11 12 12 12 12 12 12 11 11 10 10 9
3 3 3 3 3 3 3 2 2 3 3 4 5 4 3 3 3 3 3 3 1 2 2 3 2 4 3 3 6 8 7 11 12 12 12 12 12 12 12 11 10 9 9
3 3 3 3 3 3 3 3 3 3 3 4 4 4 4 3 3 3 3 3 4 2 3 3 2 3 3 3 5 5 5 9 11 12 13 13 13 13 12 12 11 10 10
3 3 3 3 3 4 4 3 3 3 4 4 3 4 4 3 3 3 3 3 3 4 3 3 4 3 3 4 5 4 5 8 10 12 12 13 13 13 13 13 12 12 11
3 3 3 3 3 3 3 3 3 3 4 4 4 4 5 4 4 3 3 3 3 3 3 4 3 2 3 4 3 3 4 4 5 11 12 13 13 13 13 13 12 12 11
3 3 3 3 3 3 3 3 4 4 4 5 5 4 5 4 5 4 4 4 3 4 4 4 3 3 4 4 4 4 4 4 4 8 12 13 13 13 13 13 13 12 12
3 3 3 4 4 4 4 4 4 4 5 5 5 5 6 5 5 4 5 5 4 4 4 4 4 3 3 2 2 3 3 3 4 6 9 10 11 11 12 12 12 12 12
3 3 3 4 4 4 4 4 4 4 4 5 5 6 6 6 6 6 5 5 4 4 3 3 4 3 3 2 2 2 2 2 3 4 4 5 7 9 10 11 11 12 12
3 3 3 3 4 3 4 4 4 4 3 4 4 5 6 7 8 7 5 5 5 4 4 4 4 3 3 2 3 3 3 2 3 3 3 3 3 4 5 8 10 12 12
2 2 3 3 4 4 5 6 5 4 3 3 4 4 5 6 7 9 10 9 8 7 6 5 4 5 5 4 3 3 3 2 3 3 3 3 3 4 5 5 9 11 12
2 2 3 3 4 5 6 6 7 4 4 4 4 4 4 4 5 5 7 8 8 10 10 7 6 6 6 5 4 4 4 4 5 4 3 3 3 4 4 5 9 10 11
3 3 4 4 3 5 5 5 5 4 3 4 5 5 4 4 4 4 4 4 4 5 7 6 6 7 6 5 5 5 5 4 3 3 4 3 3 4 4 3 8 10 11
3 4 3 3 3 4 5 5 4 2 2 4 4 4 4 4 5 4 3 3 3 4 5 7 8 8 8 8 5 3 2 2 3 3 3 3 2 2 2 3 5 9 10
4 4 3 3 3 4 4 5 4 2 2 3 3 3 4 5 5 4 3 3 4 4 3 2 3 4 5 6 7 6 5 4 3 2 3 4 3 2 1 2 2 3 4
Wind_Direction
185 194 200 197 204 199 197 201 213 221 223 231 229 222 217 208 207 203 209 209 210 209 208 206 203 202 203 204 203 202 202 203 202 203 204 206 204 205 207 209 211 210 212
183 187 185 193 208 204 203 203 207 210 222 222 230 227 216 209 201 196 202 213 213 213 211 209 206 206 207 206 206 205 203 204 205 204 203 206 207 208 210 212 215 215 217
179 177 178 188 212 206 195 198 206 199 216 219 236 236 215 208 197 197 199 204 214 215 212 212 211 208 210 210 209 208 207 207 207 208 210 210 210 210 211 212 216 218 220
173 165 176 201 208 187 185 197 199 200 220 223 236 242 225 208 207 208 203 201 204 211 215 214 214 211 210 213 213 214 213 210 209 211 213 214 214 213 211 213 218 220 221
173 167 195 213 196 185 196 216 199 189 207 224 233 235 230 216 217 214 209 208 205 204 207 214 214 213 211 215 216 216 216 214 212 213 214 215 215 213 211 212 216 220 221
174 171 213 224 197 187 203 209 204 202 205 209 235 250 254 241 227 219 218 212 208 206 205 213 213 219 218 217 217 217 218 218 215 215 216 217 215 212 211 212 216 221 225
181 183 210 214 200 204 218 209 194 202 224 192 143 307 306 268 241 240 225 212 218 212 202 211 210 211 221 221 219 218 218 216 214 216 218 217 212 209 211 213 217 219 223
192 196 196 209 204 207 225 210 193 190 221 180 153 128 317 310 273 247 228 216 220 214 210 214 209 209 218 216 215 215 216 216 215 213 212 209 205 204 205 210 215 218 220
193 197 212 210 218 207 220 221 203 192 208 217 174 157 169 223 268 273 239 227 219 215 214 212 211 209 209 208 210 214 213 213 215 215 212 209 204 202 206 211 217 223 226
211 204 214 211 221 225 225 229 212 198 187 207 219 209 194 178 177 264 286 255 234 222 216 214 214 217 211 204 207 206 209 210 213 215 211 208 204 204 208 211 219 226 230
247 225 206 201 220 229 231 232 223 208 196 197 201 206 218 218 187 187 255 281 279 248 221 211 208 212 209 202 203 208 207 208 207 210 211 209 207 207 209 212 218 226 231
272 247 217 217 226 234 235 232 223 214 211 206 207 197 188 193 202 192 216 243 262 273 252 221 213 214 208 205 212 211 208 207 206 209 211 209 208 210 212 215 220 225 228
264 250 238 233 236 236 233 225 221 226 216 208 210 211 207 209 193 184 188 219 254 277 280 253 230 221 220 208 216 215 214 211 208 208 209 209 209 210 213 217 222 226 228
243 248 242 234 233 229 228 216 217 232 221 219 223 215 215 218 201 188 186 184 233 277 275 257 256 228 224 215 222 219 218 214 210 208 208 209 209 210 212 215 219 224 226
247 247 245 235 231 229 225 213 217 228 217 221 224 216 214 218 206 200 191 182 181 223 258 250 245 240 229 224 222 219 219 218 215 210 209 210 210 210 212 213 215 218 220
254 256 255 244 236 233 225 218 222 231 221 223 217 212 217 218 214 205 198 196 191 194 230 241 237 234 226 235 231 222 223 224 220 215 213 212 212 212 212 213 214 216 217
245 243 249 242 235 239 231 221 231 233 228 230 227 216 220 213 212 213 206 200 197 187 224 260 251 245 228 228 235 223 225 228 228 220 216 213 213 213 212 213 214 215 218
247 237 230 228 230 234 226 220 235 235 228 230 232 225 227 219 215 213 207 211 212 204 202 235 254 248 242 226 220 225 234 234 230 224 217 214 214 215 215 213 214 214 216
260 253 235 233 236 234 233 232 232 235 230 230 227 222 225 214 218 215 210 214 217 218 197 208 242 246 250 235 228 244 243 244 238 230 216 215 214 214 215 213 212 211 212
254 251 247 240 236 233 233 236 236 237 239 241 234 227 225 214 219 217 219 215 212 214 205 207 228 240 243 236 198 224 258 258 245 233 223 214 214 216 216 215 213 210 211
264 258 260 260 252 244 238 233 232 235 237 245 244 235 233 230 228 221 221 211 203 207 206 210 224 235 235 216 217 216 229 258 262 224 207 215 206 213 220 219 217 215 214
285 281 270 264 263 264 256 244 232 235 240 241 249 252 249 240 237 231 233 223 208 203 206 211 221 225 237 226 218 210 209 221 261 226 185 220 196 212 218 214 217 217 216
280 277 274 265 261 266 259 249 238 227 233 240 245 250 257 251 240 231 236 234 228 224 213 207 214 226 228 218 202 213 214 211 231 221 172 223 207 218 225 222 215 214 214
272 265 269 267 264 272 260 247 244 237 238 244 241 240 241 248 242 228 225 230 236 236 226 216 216 226 226 218 202 205 209 215 249 236 176 203 213 217 220 217 216 214 215
282 274 268 267 266 276 264 252 239 231 245 257 254 242 228 230 241 229 203 215 246 267 258 234 226 230 233 229 210 181 187 186 235 232 187 177 197 199 209 221 221 214 216
275 282 283 276 265 266 265 254 234 202 234 256 266 256 239 233 239 229 195 200 230 253 254 270 258 248 236 231 214 199 196 194 208 226 201 171 180 160 209 240 219 211 215